Location: *
(23.5860°S, 65.4036°W)
Time: 05:07:11
(UTC+00:00)

NOSS 3-2 (A) - Pass Details

Date: 25 August 2019
Orbit: 820 x 1388 km, 63.4° (Epoch: 14 September)

Event Time Altitude Azimuth Distance (km) Brightness Sun altitude
Rises 22:53:42 0° 346° (NNW) 4,412 7.2 -11.0°
Reaches altitude 10° 22:56:39 10° 349° (N) 3,451 6.6 -11.7°
Maximum altitude 23:05:03 60° 67° (ENE) 1,529 4.2 -13.6°
Drops below altitude 10° 23:13:02 10° 144° (SE) 3,294 5.9 -15.4°
Enters shadow 23:15:30 - 147° (SSE) 4,103 6.4 -16.0°
